www.pogodaiklimat.ru

Погода и климат >> Архив погоды >> Австралия >> Южная Австралия >> Аэродром Вумера


ПОГОДА на Аэродроме Вумера

  • Прогноз погоды на Аэродроме Вумера
  • Монитор погоды на Аэродроме Вумера

АРХИВ ПОГОДЫ на Аэродроме Вумера

Время (UTC), дата Ветер
(напр.,м/с)
 
Видим.   Явления Облачность Т
(С)
Тd
(С)
f
(%)
Тe
(С)
Тes
(С)
Комфортность P
(гПа)
Po
(гПа)
Тmin
(С)
Tmax
(С)
R
(мм)
R24
(мм)
S
(см)
07 20.05 ЮЗ 2 н/о н/о +23.5 -1.4 19 +22 +22 комфорт 1020.9 1000.8
08 20.05 Ю 3 н/о н/о +20.7 +0.5 26 +21 +21 комфорт 1021.1 1001.0
09 20.05 ЮВ 3 н/о н/о +18.6 +1.2 31 +19 +19 1021.6 1001.5
10 20.05 ЮВ 3 н/о н/о +18.2 +1.3 32 +18 +18 1022.2 1002.1
11 20.05 ЮВ 3 н/о н/о +16.4 +0.5 34 +16 +16 1022.4 1002.3
12 20.05 В 3 н/о н/о +16.3 +1.2 36 +16 +16 1022.5 1002.4
13 20.05 В 3 н/о н/о +15.4 +0.4 36 +15 +15 1022.5 1002.4
14 20.05 В 3 н/о н/о +13.4 +0.8 42 +12 +12 1022.2 1002.1 +24.3
15 20.05 В 4 н/о н/о +13.0 +0.7 43 +12 +12 1021.5 1001.4
16 20.05 В 4 н/о н/о +13.2 +0.6 42 +12 +12 1021.3 1001.2
17 20.05 В 3 н/о н/о +13.7 +0.4 40 +13 +13 1021.5 1001.4
18 20.05 В 3 н/о н/о +13.8 +0.5 40 +13 +13 1021.4 1001.3
19 20.05 СВ 5 н/о н/о +14.6 +1.5 41 +13 +13 1021.4 1001.3
20 20.05 СВ 4 н/о 10/10 1500 м
[]
+14.3 +1.6 42 +13 +13 1021.7 1001.6
21 20.05 В 3 н/о н/о +14.7 +1.6 41 +14 +14 1022.1 1002.0
22 20.05 В 3 н/о н/о +14.5 +1.4 41 +14 +14 1022.7 1002.6
23 20.05 В 3 н/о н/о +17.5 +1.5 34 +18 +18 1023.1 1003.0
00 21.05 СВ 3 н/о н/о +19.8 +3.1 33 +20 +20 1023.5 1003.4
01 21.05 В 2 н/о н/о +21.1 +5.9 37 +22 +22 комфорт 1023.6 1003.5
02 21.05 С 6 н/о туман местами 9/0 2000 м
[]
+19.0 +16.6 86 +20 +20 1023.7 1003.6 +12.9
03 21.05 СВ 2 н/о н/о +19.7 +16.2 80 +22 +22 комфорт 1022.8 1002.7
04 21.05 СВ 4 н/о н/о +19.4 +16.6 84 +21 +21 комфорт 1022.2 1002.1
05 21.05 В 3 н/о {туман} 10/0 2000 м
[]
+20.7 +17.1 80 +25 +25 комфорт 1021.6 1001.5 1
06 21.05 СВ 3 н/о н/о +23.0 +15.1 61 +27 +27 душно 1021.6 1001.5
07 21.05 СВ 3 н/о н/о +23.5 +13.9 55 +26 +26 жарко 1021.7 1001.6
08 21.05 СВ 3 н/о н/о +21.5 +15.1 67 +25 +25 комфорт 1021.9 1001.8
09 21.05 В 3 н/о н/о +19.5 +14.7 74 +21 +21 комфорт 1022.4 1002.3
10 21.05 В 3 н/о н/о +17.9 +14.4 80 +18 +18 1022.9 1002.8
11 21.05 В 4 н/о 6/0
[]
+17.3 +14.2 82 +17 +17 1023.5 1003.4
12 21.05 В 3 н/о н/о +17.2 +14.5 84 +17 +17 1024.2 1004.1
13 21.05 В 3 н/о н/о +15.7 +13.9 89 +15 +15 1024.3 1004.2
14 21.05 штиль 0 н/о н/о +15.8 +14.2 90 +16 +16 1024.3 1004.2 +23.8
15 21.05 штиль 0 н/о н/о +15.9 +13.9 88 +16 +16 1024.1 1004.0
16 21.05 В 3 н/о н/о +15.1 +12.8 86 +15 +15 1023.9 1003.8
17 21.05 В 4 н/о н/о +14.5 +12.5 88 +13 +13 1024.3 1004.2
18 21.05 В 4 н/о н/о +14.3 +12.0 86 +13 +13 1024.4 1004.3
19 21.05 В 4 н/о н/о +14.7 +11.5 81 +14 +14 1024.5 1004.4
20 21.05 В 4 н/о н/о +13.6 +11.1 85 +12 +12 1024.6 1004.5
21 21.05 Ю 2 н/о н/о +12.3 +10.5 89 +12 +12 1025.2 1005.1
22 21.05 ЮВ 4 н/о н/о +13.2 +11.4 89 +12 +12 1026.0 1005.8
23 21.05 ЮВ 3 н/о н/о +15.7 +12.5 81 +15 +15 1026.7 1006.5 1
00 22.05 В 4 н/о н/о +18.6 +11.9 65 +19 +19 1026.8 1006.6
01 22.05 СВ 5 н/о н/о +21.8 +11.5 52 +24 +24 комфорт 1026.5 1006.3
02 22.05 СВ 3 н/о н/о +23.7 +10.4 43 +25 +25 комфорт 1026.2 1006.0 +12.0
03 22.05 С 2 н/о н/о +25.3 +9.2 36 +26 +26 жарко 1025.6 1005.4
04 22.05 З 2 н/о н/о +25.7 +9.1 35 +26 +26 жарко 1024.8 1004.7
05 22.05 С 3 н/о н/о +26.8 +9.2 33 +27 +27 жарко 1024.3 1004.2
06 22.05 СЗ 4 н/о н/о +27.5 +9.3 32 +28 +28 жарко 1024.1 1004.0
07 22.05 СЗ 3 н/о н/о +27.1 +9.0 32 +27 +27 жарко 1024.0 1003.9
08 22.05 СЗ 2 н/о н/о +25.1 +8.6 35 +26 +26 жарко 1024.3 1004.2
09 22.05 штиль 0 н/о н/о +23.5 +9.1 40 +24 +24 комфорт 1024.6 1004.5
10 22.05 В 2 н/о н/о +21.8 +9.3 45 +23 +23 комфорт 1024.9 1004.8
11 22.05 В 3 н/о н/о +20.4 +9.0 48 +22 +22 комфорт 1025.5 1005.3
12 22.05 ЮВ 3 н/о н/о +18.8 +8.5 51 +19 +19 1025.3 1005.2
13 22.05 В 4 н/о н/о +17.9 +8.5 54 +18 +18 1025.0 1004.9
14 22.05 СВ 4 н/о 4/0
[]
+16.2 +9.4 64 +16 +16 1025.1 1005.0 +28.1
15 22.05 В 3 н/о н/о +16.5 +9.2 62 +16 +16 1024.9 1004.8
16 22.05 В 4 н/о н/о +15.9 +9.1 64 +15 +15 1024.5 1004.4
17 22.05 В 3 н/о н/о +16.3 +9.5 64 +16 +16 1024.2 1004.1
18 22.05 В 2 н/о н/о +14.7 +8.2 65 +14 +14 1024.3 1004.2
19 22.05 СВ 5 н/о н/о +15.2 +8.4 64 +14 +14 1024.2 1004.1
20 22.05 С 4 н/о 9/0
[]
+15.0 +8.5 65 +14 +14 1024.6 1004.5
21 22.05 С 4 н/о н/о +16.2 +6.9 54 +16 +16 1025.0 1004.9
22 22.05 С 5 н/о н/о +15.9 +6.9 55 +15 +15 1025.7 1005.5
23 22.05 С 5 н/о 3/0
[]
+17.7 +7.4 51 +17 +17 1026.1 1005.9
00 23.05 С 3 н/о н/о +20.5 +7.8 44 +22 +22 комфорт 1026.7 1006.5
01 23.05 С 6 н/о н/о +23.7 +7.8 36 +24 +24 комфорт 1026.4 1006.2
02 23.05 С 8 н/о н/о +25.7 +7.8 32 +26 +26 жарко 1025.2 1005.1 +14.0
03 23.05 С 9 н/о н/о +27.9 +7.7 28 +27 +27 жарко 1023.9 1003.8
04 23.05 СЗ 9 н/о н/о +28.1 +6.2 25 +27 +27 жарко 1022.9 1002.8
05 23.05 С 9 н/о н/о +28.5 +6.0 24 +27 +27 жарко 1022.3 1002.2
06 23.05 С 7 н/о н/о +28.4 +5.3 23 +27 +27 жарко 1021.9 1001.8
07 23.05 С 7 н/о н/о +27.5 +4.5 23 +26 +26 жарко 1021.8 1001.7
08 23.05 С 5 н/о н/о +25.3 +5.0 27 +25 +25 комфорт 1021.9 1001.8
09 23.05 С 5 н/о н/о +23.0 +5.4 32 +23 +23 комфорт 1022.1 1002.0
10 23.05 С 5 н/о н/о +22.5 +5.4 33 +23 +23 комфорт 1022.5 1002.4
11 23.05 С 6 н/о н/о +21.9 +4.9 33 +22 +22 комфорт 1022.6 1002.5
12 23.05 С 6 н/о н/о +20.1 +5.4 38 +21 +21 комфорт 1022.7 1002.6
13 23.05 С 6 н/о н/о +19.6 +5.3 39 +20 +20 1022.5 1002.4
14 23.05 С 5 н/о н/о +18.4 +5.9 44 +18 +18 1022.3 1002.2 +29.3
15 23.05 С 5 н/о н/о +18.1 +6.0 45 +18 +18 1021.7 1001.6
16 23.05 С 5 н/о н/о +17.5 +6.1 47 +17 +17 1021.3 1001.2
17 23.05 С 6 н/о 10/0
[]
+17.7 +6.3 47 +17 +17 1020.8 1000.7
18 23.05 С 6 н/о н/о +17.0 +6.5 50 +16 +16 1020.4 1000.3
19 23.05 С 5 н/о н/о +16.8 +6.3 50 +16 +16 1020.1 1000.1
20 23.05 С 4 н/о 3/0
[]
+15.6 +6.3 54 +15 +15 1020.6 1000.5
21 23.05 С 3 н/о н/о +15.2 +6.0 54 +15 +15 1021.1 1001.0
22 23.05 С 5 н/о н/о +15.9 +6.3 53 +15 +15 1021.3 1001.2
23 23.05 С 5 н/о 8/0
[]
+17.8 +6.3 47 +17 +17 1021.5 1001.4
00 24.05 С 8 н/о н/о +21.0 +6.2 38 +22 +22 комфорт 1021.3 1001.2
01 24.05 С 9 н/о н/о +24.5 +5.3 29 +24 +24 комфорт 1021.1 1001.0
02 24.05 С 10 н/о 1/0
[]
+26.5 +5.5 26 +26 +26 жарко 1020.2 1000.2 +15.0
03 24.05 С 10 н/о н/о +27.3 +5.6 25 +26 +26 жарко 1019.3 999.3
04 24.05 СЗ 10 н/о н/о +27.1 +4.2 23 +26 +26 жарко 1018.6 998.6
05 24.05 СЗ 9 н/о 10/0
[]
+27.9 +4.2 22 +26 +26 жарко 1017.6 997.6
06 24.05 СЗ 8 н/о н/о +27.3 +3.1 21 +26 +26 жарко 1017.5 997.5
07 24.05 СЗ 6 н/о н/о +26.2 +3.5 23 +25 +25 комфорт 1017.6 997.6
08 24.05 СЗ 5 н/о 9/0
[]
+24.3 +3.6 26 +24 +24 комфорт 1017.7 997.7
09 24.05 С 4 н/о н/о +22.4 +4.0 30 +22 +22 комфорт 1018.0 998.0
10 24.05 С 4 н/о н/о +21.6 +3.8 31 +22 +22 комфорт 1018.3 998.3
11 24.05 З 4 н/о 3/0
[]
+19.3 +3.5 35 +20 +20 1018.8 998.8
12 24.05 ЮЗ 5 н/о н/о +19.3 +9.8 54 +20 +20 1019.2 999.2
13 24.05 ЮЗ 3 н/о н/о +18.2 +10.3 60 +19 +19 1019.7 999.7
14 24.05 ЮЗ 4 н/о н/о +16.9 +10.1 64 +16 +16 1019.5 999.5 +28.5
15 24.05 Ю 5 н/о н/о +16.3 +10.8 70 +15 +15 1019.1 999.1
16 24.05 Ю 4 н/о н/о +15.1 +10.7 75 +14 +14 1019.0 999.0
17 24.05 Ю 4 н/о н/о +14.3 +10.3 77 +13 +13 1018.9 998.9
18 24.05 Ю 4 н/о н/о +13.5 +10.1 80 +12 +12 1018.7 998.7
19 24.05 Ю 3 н/о н/о +12.3 +9.5 83 +11 +11 1018.7 998.7
20 24.05 ЮЗ 4 н/о 8/0
[]
+11.3 +9.0 86 +9 +9 1019.0 999.0
21 24.05 Ю 3 н/о н/о +11.2 +8.9 86 +9 +9 1019.1 999.1
22 24.05 ЮЗ 3 н/о н/о +11.3 +9.0 86 +9 +9 1019.8 999.8
23 24.05 ЮЗ 3 н/о 4/0
[]
+13.1 +9.9 81 +12 +12 1020.4 1000.3
00 25.05 ЮЗ 6 н/о н/о +15.3 +10.3 72 +14 +14 1021.1 1001.0
01 25.05 ЮЗ 5 н/о н/о +17.3 +9.7 61 +17 +17 1020.8 1000.7
02 25.05 ЮЗ 4 н/о н/о +18.4 +8.7 53 +19 +19 1019.9 999.9 +11.2
03 25.05 З 5 н/о н/о +19.6 +7.4 45 +20 +20 1018.8 998.8
04 25.05 З 6 н/о н/о +21.2 +5.6 36 +22 +22 комфорт 1018.1 998.1
05 25.05 З 7 н/о н/о +21.1 +5.5 36 +22 +22 комфорт 1017.8 997.8
06 25.05 З 8 н/о н/о +21.0 +5.8 37 +22 +22 комфорт 1017.6 997.6
07 25.05 ЮЗ 7 н/о н/о +20.3 +7.3 43 +21 +21 комфорт 1018.1 998.1
08 25.05 ЮЗ 9 н/о н/о +17.7 +9.8 60 +17 +17 1018.8 998.8
09 25.05 ЮЗ 6 н/о н/о +17.2 +8.9 58 +16 +16 1019.7 999.7
10 25.05 ЮЗ 6 н/о н/о +16.4 +9.8 65 +15 +15 1020.5 1000.4
11 25.05 ЮЗ 7 н/о н/о +16.0 +10.1 68 +15 +15 1021.2 1001.1
12 25.05 Ю 7 н/о н/о +15.0 +9.6 70 +13 +13 1021.6 1001.5
13 25.05 Ю 5 н/о н/о +13.9 +8.9 72 +12 +12 1021.9 1001.8
14 25.05 Ю 4 н/о н/о +12.5 +8.4 76 +11 +11 1022.0 1001.9 +21.8
15 25.05 Ю 5 н/о н/о +12.4 +9.1 80 +10 +10 1021.8 1001.7
16 25.05 Ю 4 н/о н/о +10.8 +8.0 83 +9 +9 1021.5 1001.4
17 25.05 ЮЗ 3 н/о н/о +9.7 +7.6 87 +7 +7 1021.5 1001.4
18 25.05 ЮЗ 4 н/о н/о +9.1 +7.5 90 +6 +6 1021.3 1001.2
19 25.05 ЮЗ 3 н/о н/о +8.5 +7.1 91 +6 +6 1021.3 1001.2
20 25.05 ЮЗ 2 н/о н/о +8.4 +6.9 90 +6 +6 1021.4 1001.3
21 25.05 З 2 н/о н/о +7.6 +6.5 93 +5 +5 1021.8 1001.7
22 25.05 З 2 н/о н/о +7.8 +6.4 91 +6 +6 1022.2 1002.1
23 25.05 З 3 н/о н/о +9.0 +6.6 85 +7 +7 1023.1 1003.0
00 26.05 З 4 н/о н/о +12.6 +7.5 71 +11 +11 1023.6 1003.5
01 26.05 З 4 н/о н/о +14.8 +8.1 64 +14 +14 1023.5 1003.4
02 26.05 ЮЗ 6 н/о 1/1 1000 м
[]
+16.0 +5.3 49 +15 +15 1022.7 1002.6 +7.2
03 26.05 З 6 н/о н/о +16.8 +4.8 45 +16 +16 1021.5 1001.4
04 26.05 ЮЗ 7 н/о н/о +17.7 +5.0 43 +17 +17 1020.6 1000.5
05 26.05 ЮЗ 7 н/о н/о +17.3 +4.6 43 +16 +16 1020.5 1000.4
06 26.05 ЮЗ 7 н/о н/о +17.5 +4.8 43 +17 +17 1020.4 1000.3
07 26.05 ЮЗ 7 н/о н/о +16.9 +4.6 44 +16 +16 1020.6 1000.5
08 26.05 З 8 н/о н/о +15.9 +4.3 46 +14 +14 1020.7 1000.6
09 26.05 З 5 н/о н/о +14.8 +4.2 49 +14 +14 1021.2 1001.1
10 26.05 З 4 н/о н/о +14.0 +3.8 50 +13 +13 1021.5 1001.4
11 26.05 ЮЗ 4 н/о 8/8 1500 м
[]
+15.0 +5.0 51 +14 +14 1021.9 1001.8
12 26.05 ЮЗ 5 н/о н/о +14.6 +6.2 57 +13 +13 1022.1 1002.0
13 26.05 ЮЗ 4 н/о н/о +12.9 +6.3 64 +11 +11 1022.2 1002.1
14 26.05 ЮЗ 5 н/о н/о +12.2 +6.7 69 +10 +10 1022.1 1002.0 +18.3
15 26.05 З 4 н/о н/о +10.2 +5.8 74 +8 +8 1021.8 1001.7
16 26.05 З 5 н/о н/о +9.4 +5.8 78 +6 +6 1021.5 1001.4
17 26.05 З 5 н/о н/о +9.6 +6.5 81 +7 +7 1021.4 1001.3
18 26.05 З 5 н/о н/о +9.1 +6.7 85 +6 +6 1021.3 1001.2
19 26.05 З 5 н/о н/о +8.5 +6.6 88 +5 +5 1021.4 1001.3
20 26.05 З 4 н/о н/о +8.6 +7.1 90 +6 +6 1021.8 1001.7
21 26.05 З 5 н/о н/о +7.8 +6.3 90 +4 +4 1021.8 1001.7
22 26.05 З 4 н/о н/о +8.3 +7.1 92 +5 +5 1022.4 1002.3
23 26.05 ЮЗ 7 н/о 10/10 300 м
[]
+12.0 +9.4 84 +9 +9 1023.1 1003.0
00 27.05 ЮЗ 8 н/о н/о +13.5 +9.4 76 +11 +11 1023.7 1003.6
01 27.05 ЮЗ 9 н/о н/о +14.7 +9.1 69 +12 +12 1023.9 1003.8
02 27.05 ЮЗ 8 н/о 10/10 600 м
[]
+15.4 +7.9 61 +14 +14 1023.7 1003.6 +7.8
03 27.05 ЮЗ 8 н/о н/о +15.9 +7.4 57 +14 +14 1022.9 1002.8
04 27.05 ЮЗ 7 н/о н/о +16.3 +5.9 50 +15 +15 1022.6 1002.5
05 27.05 ЮЗ 8 н/о 4/4 1000 м
[]
+17.1 +6.0 48 +16 +16 1022.3 1002.2
06 27.05 Ю 7 н/о н/о +16.3 +5.3 48 +15 +15 1022.4 1002.3

 

Местоположение метеостанции Аэродром Вумера (Южная Австралия, Австралия): широта -31.15 долгота 136.81 высота над уровнем моря 167 м.

В архиве по умолчанию представлена погода на Аэродроме Вумера за последнюю неделю. Архивные данные за месяц целиком и за предыдущие месяцы, начиная с января 2011 года, Вы можете получить, выбрав интересующий диапазон дат из раскрывающегося списка и нажав кнопку "Ввод!".


*Определитесь, кто Вы:
робот инопланетянин человек

Внимание! Время в таблицах - всемирное. Для получения местного времени необходимо прибавить поправку, которая равна 9.5 ч.

Смотрите также архив погоды в соседних городах и на ближайших метеорологических станциях:

Погода в Олимпик Дэм (Южная Австралия, Австралия) (75 км)
Погода в Ли-Крике (Южная Австралия, Австралия) (165 км)
Погода в Порт Огаста (Южная Австралия, Австралия) (175 км)
Погода в Марри (Южная Австралия, Австралия) (205 км)
Погода в Таркуле (Южная Австралия, Австралия) (218 км)
Погода в Уиолле (Южная Австралия, Австралия) (224 км)
Погода в Миннипа Пирса (Южная Австралия, Австралия) (245 км)
Погода в Уудинне (Южная Австралия, Австралия) (247 км)
Погода в Кливе аэропорту (Южная Австралия, Австралия) (287 км)
Погода в Юнте (Южная Австралия, Австралия) (305 км)

Пояснения к столбцам:

Ветер - указаны скорость ветра в м/с - средняя за 10 мин, порывы в срок и между сроками (в фигурных скобках) и направление, откуда дует ветер: С - северный, СВ - северо-восточный, В - восточный, ЮВ - юго-восточный, Ю - южный, ЮЗ - юго-западный, З - западный, СЗ - северо-западный.
Видимость - горизонтальная дальность видимости в метрах или километрах. При видимости от 1 до 10 км при отсутствии осадков обычно наблюдается дымка, при ухудшении видимости до 1 км и менее - туман. В сухую погоду видимость может ухудшаться дымом, пылью или мглою.
Явления - указаны атмосферные явления, наблюдавшиеся в срок или в последний час перед сроком; фигурными скобками обозначены явления, наблюдавшиеся между сроками (за 1-3 часа до срока); квадратными скобками обозначены град или гололедные отложения с указанием их диаметра в мм.
Облачность - указаны через наклонную черту общая и нижняя облачность в баллах и высота нижней границы облаков в метрах; квадратными скобками обозначены формы облаков: Ci - перистые, Cs - перисто-слоистые, Cc - перисто-кучевые, Ac - высококучевые, As - высокослоистые, Sc - слоисто-кучевые, Ns - слоисто-дождевые, Cu - кучевые, Cb - кучево-дождевые. Подробнее классификацию облаков см. в Атласе облаков (PDF).
T - Температура воздуха - температура, измеренная на высоте 2 м над землей.
Td - Температура точки росы - температура, при понижении до которой содержащийся в воздухе водяной пар достигнет насыщения.
f - Относительная влажность воздуха - влажноcть воздуха, измеренная на высоте 2 м над землей.
Te - Эффективная температура - температура, которую ощущает одетый по сезону человек в тени. Характеристика душности погоды. При расчете учитывается влияние влажности воздуха и скорости ветра на теплоощущения человека.
Tes - Эффективная температура на солнце - температура, которую ощущает человек, с поправкой на солнечный нагрев. Характеристика знойности погоды. Зависит от высоты солнца над горизонтом, облачности и скорости ветра. Ночью, в пасмурную погоду, а также при ветре 12 м/с и более поправка равна нулю.
P - Атмосферное давление - приведенное к уровню моря атмосферное давление.
Po - Атмосферное давление - измеренное на уровне метеостанции атмосферное давление.
Tmin - Минимальная температура - минимум температуры воздуха на высоте 2 м над землей.
Tmax - Максимальная температура - максимум температуры воздуха на высоте 2 м над землей.
R - Количество осадков - Количество выпавших осадков за период времени, мм. При наведении курсора мыши на число - период времени, за который выпало указанное количество осадков.
R24 - Количество осадков - Количество выпавших осадков за 24 часа, мм.
S - Снежный покров - Высота снежного покрова, см. При наведении курсора мыши на число - состояние снежного покрова и степень покрытия местности в баллах.